TimeADT,TemperatureF,Dew PointF,Humidity,Sea Level PressureIn,VisibilityMPH,Wind Direction,Wind SpeedMPH,Gust SpeedMPH,PrecipitationIn,Events,Conditions,WindDirDegrees,DateUTC
12:00 AM,13,11,88,30.15,10,West,3.5,,,,,260,2013-05-24 03:00:00
12:00 AM,14.0,10.4,86,30.15,9.0,West,3.5,-,N/A,,Partly Cloudy,260,2013-05-24 03:00:00
1:00 AM,12.2,10.4,92,30.15,9.0,WSW,2.3,-,N/A,,Clear,250,2013-05-24 04:00:00
2:00 AM,14.0,12.2,93,30.15,9.0,WSW,3.5,-,N/A,,Mostly Cloudy,250,2013-05-24 05:00:00
3:00 AM,12,10,90,30.15,10,West,4.6,,,,,260,2013-05-24 06:00:00
3:00 AM,12.2,10.4,92,30.15,9.0,West,4.6,-,N/A,,Clear,270,2013-05-24 06:00:00
4:00 AM,14.0,12.2,93,30.15,9.0,West,4.6,-,N/A,,Clear,280,2013-05-24 07:00:00
5:00 AM,14.0,10.4,86,30.16,9.0,West,6.9,-,N/A,,Overcast,270,2013-05-24 08:00:00
5:02 AM,14.0,10.4,86,30.15,9.0,West,4.6,-,N/A,,Overcast,260,2013-05-24 08:02:00
5:58 AM,21.2,17.6,86,30.15,9.0,WNW,16.1,-,N/A,,Overcast,290,2013-05-24 08:58:00
6:00 AM,21,17,80,30.15,10,WNW,15.0,,,,Overcast,290,2013-05-24 09:00:00
6:00 AM,21.2,17.6,86,30.15,9.0,WNW,15.0,-,N/A,,Overcast,290,2013-05-24 09:00:00
7:00 AM,23.0,19.4,86,30.15,9.0,West,15.0,-,N/A,,Overcast,280,2013-05-24 10:00:00
8:00 AM,23.0,19.4,86,30.15,9.0,WNW,12.7,-,N/A,,Overcast,290,2013-05-24 11:00:00
9:00 AM,25,20,76,30.15,10,WNW,13.8,,,,Overcast,300,2013-05-24 12:00:00
9:00 AM,24.8,21.2,86,30.15,9.0,WNW,13.8,-,N/A,,Overcast,300,2013-05-24 12:00:00
9:39 AM,24.8,21.2,86,30.15,9.0,WNW,15.0,-,N/A,Snow,Light Snow,300,2013-05-24 12:39:00
10:00 AM,24.8,21.2,86,30.16,9.0,WNW,13.8,-,N/A,Snow,Light Snow,300,2013-05-24 13:00:00
10:01 AM,24.8,21.2,86,30.15,9.0,WNW,13.8,-,N/A,,Overcast,300,2013-05-24 13:01:00
10:24 AM,24.8,21.2,86,30.15,4.0,WNW,13.8,-,N/A,,Haze,300,2013-05-24 13:24:00
10:34 AM,26.6,21.2,80,30.15,9.0,WNW,12.7,-,N/A,,Overcast,300,2013-05-24 13:34:00
11:00 AM,26.6,23.0,86,30.15,25.0,NW,13.8,-,N/A,,Overcast,310,2013-05-24 14:00:00
12:00 PM,26.6,23.0,86,30.15,25.0,NW,20.7,-,N/A,,Overcast,320,2013-05-24 15:00:00
1:00 PM,26.6,23.0,86,30.15,25.0,NW,19.6,-,N/A,,Overcast,320,2013-05-24 16:00:00
2:00 PM,28.4,24.8,86,30.15,25.0,NW,20.7,-,N/A,,Overcast,320,2013-05-24 17:00:00
3:00 PM,28,24,79,30.16,10,NNW,19.6,,,,Overcast,330,2013-05-24 18:00:00
3:00 PM,28.4,24.8,86,30.15,25.0,NNW,17.3,23.0,N/A,,Overcast,330,2013-05-24 18:00:00
4:00 PM,28.4,24.8,86,30.15,25.0,NW,20.7,-,N/A,,Overcast,320,2013-05-24 19:00:00
5:00 PM,28.4,24.8,86,30.15,25.0,NW,19.6,-,N/A,,Mostly Cloudy,320,2013-05-24 20:00:00
6:00 PM,29,24,75,30.16,10,NW,19.6,,,,,320,2013-05-24 21:00:00
6:00 PM,28.4,24.8,86,30.16,25.0,NW,17.3,25.3,N/A,,Scattered Clouds,320,2013-05-24 21:00:00
7:00 PM,28.4,23.0,80,30.16,25.0,NW,17.3,-,N/A,,Mostly Cloudy,320,2013-05-24 22:00:00
8:00 PM,28.4,23.0,80,30.15,25.0,NNW,19.6,-,N/A,,Mostly Cloudy,330,2013-05-24 23:00:00
9:00 PM,27,24,83,30.16,10,NNW,20.7,,,,Overcast,330,2013-05-25 00:00:00
9:00 PM,26.6,24.8,93,30.16,9.0,NNW,20.7,-,N/A,,Overcast,330,2013-05-25 00:00:00
10:00 PM,24.8,23.0,93,30.17,9.0,NW,18.4,-,N/A,,Overcast,320,2013-05-25 01:00:00
11:00 PM,24.8,23.0,93,30.16,9.0,NW,19.6,-,N/A,,Overcast,320,2013-05-25 02:00:00